{"data":{"norad_id":56874,"intl_designator":"2023-082A","name":"LONGJIANG 3","alt_names":[],"object_type":"PAYLOAD","status":"ACTIVE","operator":null,"country":"PRC","launch_date":"2023-06-09","launch_site_code":"JSC","launch_vehicle":null,"mission":null,"orbit_class":"UNKNOWN","rcs_meters":null,"size_class":null,"mass_kg":null,"dimensions":null,"purposes":[],"wikipedia_slug":null,"has_3d_model":false,"image_url":null,"decayed_at":null,"tle_current":{"epoch":"2026-05-25T05:20:03.144768Z","epoch_age_seconds":51998,"freshness":"FRESH","line1":"1 56874U 23082A   26145.22225862  .00018673  00000+0  44714-3 0  9999","line2":"2 56874  49.1070 163.6340 0005932 306.7859  53.2546 15.41379857165820","mean_motion":15.41379857,"eccentricity":0.0005932,"inclination_deg":49.107,"raan_deg":163.634,"arg_perigee_deg":306.7859,"mean_anomaly_deg":53.2546,"bstar":0.00044714,"rev_number":16582,"period_min":93.422785659252,"perigee_km":437.99023268527,"apogee_km":446.08168588416,"semimajor_km":6820.1729592847,"source":"CELESTRAK","updated_at":"2026-05-25T13:37:59.736548Z"}}}